Regional Weather Roundup
Issued by NWS

Home | Current Version | Previous Version | Graphics & Text | Print | Product List | Glossary On
Versions: 1 2 3 4 5 6 7 8 9 10 11 12 13 14 15 16 17 18 19 20 21 22 23 24 25 26 27 28 29 30 31 32 33 34 35 36 37 38 39 40 41 42 43 44 45 46 47 48 49 50
000
ASUS43 KDMX 300107
RWRIA

WEATHER ROUNDUP FOR IOWA
NATIONAL WEATHER SERVICE DES MOINES IA
800 PM CDT TUE JUL 29 2014

NOTE: "FAIR" INDICATES FEW OR NO CLOUDS BELOW 12,000 FEET WITH NO
SIGNIFICANT WEATHER AND/OR OBSTRUCTIONS TO VISIBILITY.

* - THESE STATIONS ARE NOT NWS STATIONS...THUS NOT UNDER NWS
QUALITY CONTROL.  THEY ALSO DO NOT REPORT WEATHER SUCH
AS PRECIPITATION OR FOG.

IAZ001>003-012>014-020>022-031>034-043>046-300200-
   NORTHWEST IOWA

CITY           SKY/WX    TMP DP  RH WIND       PRES   REMARKS
CARROLL *      CLEAR     68  59  73 NW6       30.10F
CHEROKEE *     CLEAR     72  55  56 NW3       30.11S
DENISON *      CLEAR     70  57  64 N5        30.10S
LE MARS *      CLEAR     72  57  60 CALM      30.12S
ORANGE CITY *  CLEAR     72  59  64 NW3       30.12F
SHELDON *      CLEAR     70  61  73 NW3       30.11F
SIOUX CITY     CLEAR     74  55  51 N7        30.11F
SPENCER        CLEAR     67  59  75 NW5       30.11F
STORM LAKE *   CLEAR     68  57  68 NW6       30.12S
$$

IAZ055>058-069>071-079>083-090>094-300200-
   SOUTHWEST IOWA

CITY           SKY/WX    TMP DP  RH WIND       PRES   REMARKS
ATLANTIC *     CLEAR     72  59  64 NW5       30.10F
AUDUBON *      CLEAR     73  59  60 CALM      30.12F
CLARINDA *     CLEAR     72  59  64 CALM      30.11F
COUNCIL BLFS * CLEAR     70  59  68 NE5       30.11S
CRESTON *      CLEAR     70  57  64 NW5       30.10F
HARLAN  *      CLEAR     70  61  73 W3        30.14F
LAMONI         PTCLDY    71  58  63 N5        30.09F
RED OAK *      CLEAR     72  59  64 N6        30.10F
SHENANDOAH *   CLEAR     70  61  73 N3        30.11S
$$

IAZ047>049-059>061-072>074-084-300200-
   CENTRAL IOWA

CITY           SKY/WX    TMP DP  RH WIND       PRES   REMARKS
AMES           CLEAR     72  57  59 NW6       30.08F
ANKENY *       CLEAR     73  55  53 NW8       30.08S
CHARITON *     CLEAR     72  59  64 NW3       30.09S
DES MOINES     PTCLDY    75  54  47 NW8       30.07F
GRINNELL*      CLEAR     70  59  68 W3        30.08S
KNOXVILLE *    CLEAR     73  55  53 NW3       30.06F
MARSHALLTOWN   CLEAR     70  61  73 W5        30.07S
PELLA *        CLEAR     73  59  60 NW3       30.08F
PERRY *          N/A     70  63  78 W3        30.09S
$$

IAZ004>006-015-016-023>025-035-036-300200-
   NORTH CENTRAL IOWA

CITY           SKY/WX    TMP DP  RH WIND       PRES   REMARKS
ALGONA *       CLEAR     72  59  64 CALM      30.10S
CLARION *      CLEAR     70  59  68 NW5       30.09S
ESTHERVILLE    CLEAR     71  56  58 NW6       30.10S
FORT DODGE *   PTCLDY    72  57  60 CALM      30.10S
MASON CITY     CLEAR     69  57  65 NW7       30.09S
FOREST CITY *  CLEAR     70  55  60 NE5       30.08F
IOWA FALLS *     N/A     70  57  64 NW5       30.09S
$$

IAZ007>011-017>019-026>030-037>042-050>054-066-300200-
   NORTHEAST IOWA

CITY           SKY/WX    TMP DP  RH WIND       PRES   REMARKS
CEDAR RAPIDS   PTCLDY    69  58  67 W7        30.05S
CHARLES CITY * CLEAR     70  57  64 NW5       30.07S
CLINTON *      CLEAR     70  59  68 W6        30.06S
DECORAH *      PTCLDY    70  57  64 VRB6      30.05S
DUBUQUE        CLEAR     69  59  70 NW5       30.05S
MONTICELLO *   CLEAR     72  59  64 NW6       30.04S
OELWEIN *      CLEAR     70  61  73 W6        30.07S
WATERLOO       CLEAR     72  56  57 W6        30.05S
$$

IAZ064-065-067-068-078-300200-
   EAST CENTRAL IOWA

CITY           SKY/WX    TMP DP  RH WIND       PRES   REMARKS
DAVENPORT      CLEAR     68  61  78 W6        30.05S
IOWA CITY      CLEAR     73  60  63 W7        30.06S
MT. PLEASANT * CLEAR     72  57  60 W3        30.07S
MUSCATINE *    CLEAR     73  61  64 CALM      30.05S
QUAD CITIES    CLEAR     74  57  55 W6        30.03S
$$

IAZ062-063-075>077-085>089-095>099-300200-
   SOUTHEAST IOWA

CITY           SKY/WX    TMP DP  RH WIND       PRES   REMARKS
BURLINGTON     CLEAR     72  60  66 W3        30.06S
FAIRFIELD *    CLEAR     70  61  73 W3        30.07S
FORT MADISON * CLEAR     72  61  68 CALM      30.07F
KEOKUK *       CLEAR     73  61  64 CALM      30.06S
OSKALOOSA *      N/A     70  63  78 CALM      30.07F
CENTERVILLE *  CLEAR     72  63  73 W3        30.10S
OTTUMWA        CLEAR     71  59  65 NW5       30.07F
WASHINGTON *   CLEAR     70  61  73 W5        30.07R
$$

ABBREVIATIONS USED IN REMARKS
   TC - TEMPERATURES IN CELSIUS
  WCI - WIND CHILL INDEX
   HX - HEAT INDEX
  VSB - VISIBILITY
$$



USA.gov is the U.S. government's official web portal to all federal, state and local government web resources and services.